Location: *
(45.9500°N, 9.0833°E)
Time: 23:26:25
(UTC+00:00)

Tiros 1 despin weight - Pass Details

Date: 01 July 2021
Orbit: 593 x 642 km, 48.2° (Epoch: 02 August)

Event Time Altitude Azimuth Distance (km) Brightness Sun altitude
Rises 01:53:02 0° 249° (WSW) 2,859 - -13.5°
Reaches altitude 10° 01:55:20 10° 249° (WSW) 1,949 - -13.2°
Exits shadow 01:56:12 16° 248° (WSW) 1,616 ? -13.2°
Maximum altitude 01:59:49 85° 159° (SSE) 606 ? -12.8°
Drops below altitude 10° 02:04:15 10° 73° (ENE) 1,932 ? -12.3°
Sets 02:06:32 0° 73° (ENE) 2,831 ? -12.1°
